Location: Kott?ru
(16.6209°N, 80.6208°E)
Time: 20:59:18
(UTC+00:00)

Cosmos 1570 Rocket - Pass Details

Date: 18 September 2020
Orbit: 763 x 788 km, 74.1° (Epoch: 27 October)

Event Time Altitude Azimuth Distance (km) Brightness Sun altitude
Exits shadow 22:51:54 - 186° (S) 2,522 6.5 -23.3°
Reaches altitude 10° 22:52:28 10° 185° (S) 2,306 6.3 -23.2°
Maximum altitude 22:57:40 70° 102° (ESE) 824 4.2 -21.9°
Drops below altitude 10° 23:02:55 10° 20° (NNE) 2,327 6.8 -20.7°
Sets 23:05:19 0° 18° (NNE) 3,259 7.6 -20.1°
